Location: Casteau
(50.5142°N, 4.0161°E)
Time: 22:19:17
(UTC+00:00)

Cosmos 2298 Rocket - Pass Details

Date: 18 September 2020
Orbit: 777 x 783 km, 74.0° (Epoch: 30 October)

Event Time Altitude Azimuth Distance (km) Brightness Sun altitude
Rises 19:57:53 0° 204° (SSW) 3,259 7.2 -20.2°
Reaches altitude 10° 20:00:16 10° 205° (SSW) 2,335 6.4 -20.5°
Maximum altitude 20:05:35 85° 294° (WNW) 794 4.0 -21.3°
Drops below altitude 10° 20:10:57 10° 23° (NNE) 2,350 6.6 -22.0°
Sets 20:13:21 0° 25° (NNE) 3,281 7.4 -22.3°
